FENGYUN 1C DEB, 37461

Orbit data source: Space-Track

FENGYUN 1C DEB, 37461 is space debris in SSO originally from a launch on Mon, 10 May 1999 UTC launched from the Taiyaun Space Center, China (TSC). Fengyun 1C debris stems from the Chinese weather satellite Fengyun-1C, which was intentionally destroyed by a Chinese anti-satellite missile in 2007. This event dramatically increased the amount of space debris, with thousands of trackable fragments posing hazards to satellites and human spaceflight. The Fengyun 1C debris cloud has become a focal point in discussions about space sustainability and the need for international regulations to prevent the creation of new debris.

Loading next visibility...
Identifier
37461, 1999-025EJF
Orbit
SSO
Country
Flag of CNCN / PRC
Related business
Manufacturer
Unknown
Mission
Spacecraft
Bus & Motor
Unknown
Mass
Unknown
Launch date (UTC)
1999-05-10 (27 years ago)
Launch vehicle
Unknown
Launch site
Taiyaun Space Center, China (TSC)
Object type
Payload
Rocket body
Debris
Shape & HBR
Unknown shape, 0.1 m
Radar Cross Section
Small (<0.1 m²)

Expand to show TLE details & history
Last TLE update: 2 days ago

TLE from 2 days ago
0 FENGYUN 1C DEB
1 37461U 99025EJF 26119.90276066  .00001726  00000-0  30606-2 0  9994
2 37461  99.8670 356.6998 0664420  24.1011 338.9723 12.79552103538016
Epoch: 2026-04-29T21:39Z
TLE epoch observation values (Epoch: 2026-04-29T21:39:58.521Z)
Latitude
-0°
Longitude
173.84891°
Altitude
871.847 km
Speed
7.641 km/s
True Right ascension
23h 46m 47s
True Declination
0° 00' 00"
Sunlit
Object was in daylight at epoch
Visualization orbit readout
Latitude
Unknown
Longitude
Unknown
Altitude
Unknown
Speed
Unknown
Apparent Right ascension
Unknown
Apparent Declination
Unknown
Sunlit
N/A
Visualization observer readout
Local Sidereal Time
01:44:53
Azimuth
Unknown
Elevation
Unknown
Doppler factor
Unknown
Orbital elements
Apogee altitude
1,853.511 km
Perigee altitude
827.807 km
Semi-major axis
7,718.796 km
Eccentricity
0.06644
Inclination
99.867°
RAAN
356.6998°
Arg. of periapsis
24.1011°
True anomaly
336.01296°
Mean anomaly
338.9723°
Eccentric anomaly
337.5165°
Mean motion
3.20051 °/min
Orbital period
112.48 mins
BSTAR
0.0030606
Loading maneuver chart data...
Computing Atmospheric mass density...
Loading historical data...
Loading historical data...
Loading historical data...
Loading historical data...
Loading historical data...
Loading historical data...
Loading historical data...

Documentation

Showing up to 5 results
|